Location: Newark
(47.5833°N, 8.1500°E)
Time: 10:40:03
(UTC+00:00)

Altair - Pass Details

Date: 31 October 2020
Orbit: 1502 x 1682 km, 47.2° (Epoch: 25 November)

Event Time Altitude Azimuth Distance (km) Brightness Sun altitude
Exits shadow 04:41:17 11° 239° (WSW) 3,609 9.0 -15.4°
Maximum altitude 04:50:17 71° 158° (SSE) 1,623 7.7 -13.9°
Drops below altitude 10° 04:59:48 10° 77° (ENE) 3,802 10.8 -12.3°
Sets 05:02:58 0° 75° (ENE) 4,813 11.5 -11.8°
